sat.trackr.live / text

‹ back to catalog

STARLINK-5148

NORAD 53978 · 2022-125Q

PAYLOAD ACTIVE UNKNOWN

§ Identity

Operator
Country
US
Launch date
2022-10-05
Launch site
AFWTR
Launch vehicle
Mass (kg)
RCS (m²)

Purposes: comms

External: N2YO · Heavens-Above · Gunter

§ Orbital elements

Epoch: 2026-09-20T22:00:03.000096Z

Period
94.17 min
Inclination
53.1605°
Eccentricity
0.0001263
Mean motion
15.29099779 rev/d
Perigee alt
477.6 km
Apogee alt
479.4 km
Semi-major
6,856.6 km
B*
4.0027e-3
RAAN
59.8968°
Arg perigee
55.2277°
Mean anomaly
24.0306°
Rev number
580

§ Raw data

STARLINK-51481 53978U 22125Q   26263.91670139  .00116044  00000+0  40027-2 0  99992 53978  53.1605  59.8968 0001263  55.2277  24.0306 15.29099779  5805

JSON: /api/v1/satellites/53978 · /tle

For live sub-satellite position, see the globe view (requires WebGL).

§ Visibility from observer

Set your observer location to see the next 7 days of passes ≥ 10°. The values pass through the URL so the page stays shareable.

No JS? Fill the form by hand. The geolocation button needs JavaScript.